Time,TemperatureF,DewpointF,PressureIn,WindDirection,WindDirectionDegrees,WindSpeedMPH,WindSpeedGustMPH,Humidity,HourlyPrecipIn,Conditions,Clouds,dailyrainin,SoftwareType,DateUTC
2013-04-09 00:03:00,80.0,75.0,29.88,ESE,108,5.0,14.0,84,0.00,,,0.00,weatherlink.com 1.10,2013-04-09 04:03:00,
2013-04-09 00:18:00,80.0,74.0,29.88,ENE,64,7.0,15.0,83,0.00,,,0.00,weatherlink.com 1.10,2013-04-09 04:18:00,
2013-04-09 00:33:00,79.9,75.0,29.87,ENE,57,7.0,17.0,84,0.00,,,0.00,weatherlink.com 1.10,2013-04-09 04:33:00,
2013-04-09 00:48:00,79.9,75.0,29.86,ENE,59,4.0,12.0,84,0.00,,,0.00,weatherlink.com 1.10,2013-04-09 04:48:00,
2013-04-09 01:03:00,79.8,75.0,29.86,ENE,65,5.0,15.0,84,0.00,,,0.00,weatherlink.com 1.10,2013-04-09 05:03:00,
2013-04-09 01:33:00,79.8,75.0,29.85,NE,47,7.0,12.0,85,0.00,,,0.00,weatherlink.com 1.10,2013-04-09 05:33:00,
2013-04-09 02:18:00,79.9,75.0,29.84,East,88,14.0,14.0,84,0.00,,,0.00,weatherlink.com 1.10,2013-04-09 06:18:00,
2013-04-09 02:34:00,79.9,75.0,29.84,NNW,344,9.0,15.0,84,0.00,,,0.00,weatherlink.com 1.10,2013-04-09 06:34:00,
2013-04-09 02:49:00,79.9,74.0,29.84,ENE,78,9.0,15.0,83,0.00,,,0.00,weatherlink.com 1.10,2013-04-09 06:49:00,
2013-04-09 03:04:00,79.8,74.0,29.84,NE,56,5.0,13.0,83,0.00,,,0.00,weatherlink.com 1.10,2013-04-09 07:04:00,
2013-04-09 03:19:00,79.8,74.0,29.83,ENE,67,5.0,13.0,83,0.00,,,0.00,weatherlink.com 1.10,2013-04-09 07:19:00,
2013-04-09 03:34:00,79.7,74.0,29.84,ENE,67,7.0,14.0,83,0.00,,,0.00,weatherlink.com 1.10,2013-04-09 07:34:00,
2013-04-09 03:49:00,79.8,74.0,29.84,ENE,69,4.0,15.0,83,0.00,,,0.00,weatherlink.com 1.10,2013-04-09 07:49:00,
2013-04-09 04:04:00,79.8,74.0,29.84,ENE,67,7.0,17.0,83,0.00,,,0.00,weatherlink.com 1.10,2013-04-09 08:04:00,
2013-04-09 04:19:00,79.9,74.0,29.84,NE,39,7.0,17.0,83,0.00,,,0.00,weatherlink.com 1.10,2013-04-09 08:19:00,
2013-04-09 04:34:00,79.8,74.0,29.84,NE,38,6.0,15.0,82,0.00,,,0.00,weatherlink.com 1.10,2013-04-09 08:34:00,
2013-04-09 04:49:00,79.9,74.0,29.85,NE,53,10.0,15.0,82,0.00,,,0.00,weatherlink.com 1.10,2013-04-09 08:49:00,
2013-04-09 05:04:00,79.9,74.0,29.85,ESE,103,8.0,14.0,82,0.00,,,0.00,weatherlink.com 1.10,2013-04-09 09:04:00,
2013-04-09 05:19:00,79.9,74.0,29.86,ENE,67,4.0,14.0,83,0.00,,,0.00,weatherlink.com 1.10,2013-04-09 09:19:00,
2013-04-09 05:49:00,79.9,74.0,29.86,East,88,5.0,12.0,83,0.00,,,0.00,weatherlink.com 1.10,2013-04-09 09:49:00,
2013-04-09 06:19:00,80.0,74.0,29.88,ESE,109,5.0,17.0,81,0.00,,,0.00,weatherlink.com 1.10,2013-04-09 10:19:00,
2013-04-09 06:34:00,80.1,74.0,29.88,ENE,78,11.0,19.0,81,0.00,,,0.00,weatherlink.com 1.10,2013-04-09 10:34:00,
2013-04-09 06:49:00,80.4,74.0,29.89,NE,55,3.0,14.0,81,0.00,,,0.00,weatherlink.com 1.10,2013-04-09 10:49:00,
2013-04-09 07:04:00,80.6,74.0,29.89,ENE,65,10.0,16.0,80,0.00,,,0.00,weatherlink.com 1.10,2013-04-09 11:04:00,
2013-04-09 07:19:00,81.0,74.0,29.90,ENE,74,8.0,14.0,80,0.00,,,0.00,weatherlink.com 1.10,2013-04-09 11:19:00,
2013-04-09 07:34:00,81.2,74.0,29.91,East,94,11.0,15.0,78,0.00,,,0.00,weatherlink.com 1.10,2013-04-09 11:34:00,
2013-04-09 08:04:00,82.3,74.0,29.92,ENE,69,10.0,18.0,76,0.00,,,0.00,weatherlink.com 1.10,2013-04-09 12:04:00,
2013-04-09 08:19:00,82.9,74.0,29.92,East,100,13.0,17.0,75,0.00,,,0.00,weatherlink.com 1.10,2013-04-09 12:19:00,
2013-04-09 08:34:00,83.2,75.0,29.92,East,87,6.0,21.0,76,0.00,,,0.00,weatherlink.com 1.10,2013-04-09 12:34:00,
2013-04-09 08:49:00,83.6,75.0,29.93,ESE,113,8.0,21.0,74,0.00,,,0.00,weatherlink.com 1.10,2013-04-09 12:49:00,
2013-04-09 09:04:00,83.7,75.0,29.93,East,95,8.0,21.0,74,0.00,,,0.00,weatherlink.com 1.10,2013-04-09 13:04:00,
2013-04-09 09:19:00,83.8,75.0,29.94,ENE,76,9.0,21.0,75,0.00,,,0.00,weatherlink.com 1.10,2013-04-09 13:19:00,
2013-04-09 09:34:00,84.3,75.0,29.94,SSE,148,8.0,17.0,74,0.00,,,0.00,weatherlink.com 1.10,2013-04-09 13:34:00,
2013-04-09 09:49:00,83.9,75.0,29.95,East,93,16.0,18.0,74,0.00,,,0.00,weatherlink.com 1.10,2013-04-09 13:49:00,
2013-04-09 10:04:00,85.2,76.0,29.95,East,96,7.0,18.0,73,0.00,,,0.00,weatherlink.com 1.10,2013-04-09 14:04:00,
2013-04-09 10:20:00,85.5,75.0,29.95,East,86,10.0,21.0,71,0.00,,,0.00,weatherlink.com 1.10,2013-04-09 14:20:00,
2013-04-09 10:35:00,84.9,75.0,29.95,East,82,13.0,21.0,73,0.00,,,0.00,weatherlink.com 1.10,2013-04-09 14:35:00,
2013-04-09 10:50:00,84.6,75.0,29.95,ESE,122,13.0,22.0,72,0.00,,,0.00,weatherlink.com 1.10,2013-04-09 14:50:00,
2013-04-09 11:05:00,85.2,75.0,29.94,ESE,111,13.0,18.0,72,0.00,,,0.00,weatherlink.com 1.10,2013-04-09 15:05:00,
2013-04-09 11:20:00,86.2,75.0,29.93,ESE,103,12.0,21.0,70,0.00,,,0.00,weatherlink.com 1.10,2013-04-09 15:20:00,
2013-04-09 11:35:00,85.3,75.0,29.93,SE,144,5.0,18.0,71,0.00,,,0.00,weatherlink.com 1.10,2013-04-09 15:35:00,
2013-04-09 12:05:00,86.5,74.0,29.92,SE,127,7.0,21.0,66,0.00,,,0.00,weatherlink.com 1.10,2013-04-09 16:05:00,
2013-04-09 12:20:00,86.0,74.0,29.92,East,97,10.0,18.0,68,0.00,,,0.00,weatherlink.com 1.10,2013-04-09 16:20:00,
2013-04-09 12:35:00,86.5,74.0,29.91,SE,139,8.0,23.0,66,0.00,,,0.00,weatherlink.com 1.10,2013-04-09 16:35:00,
2013-04-09 12:50:00,86.0,74.0,29.90,East,85,11.0,22.0,67,0.00,,,0.00,weatherlink.com 1.10,2013-04-09 16:50:00,
2013-04-09 13:05:00,86.3,74.0,29.89,East,82,8.0,26.0,67,0.00,,,0.00,weatherlink.com 1.10,2013-04-09 17:05:00,
2013-04-09 13:20:00,86.9,75.0,29.89,ENE,61,11.0,19.0,67,0.00,,,0.00,weatherlink.com 1.10,2013-04-09 17:20:00,
2013-04-09 13:35:00,85.3,74.0,29.88,ENE,59,8.0,24.0,69,0.00,,,0.00,weatherlink.com 1.10,2013-04-09 17:35:00,
2013-04-09 13:50:00,85.9,76.0,29.87,ENE,78,10.0,16.0,71,0.00,,,0.00,weatherlink.com 1.10,2013-04-09 17:50:00,
2013-04-09 14:05:00,85.7,75.0,29.85,East,85,14.0,18.0,70,0.00,,,0.00,weatherlink.com 1.10,2013-04-09 18:05:00,
2013-04-09 14:20:00,85.8,75.0,29.84,ENE,74,9.0,18.0,71,0.00,,,0.00,weatherlink.com 1.10,2013-04-09 18:20:00,
2013-04-09 14:35:00,85.1,75.0,29.84,ENE,69,9.0,21.0,71,0.00,,,0.00,weatherlink.com 1.10,2013-04-09 18:35:00,
2013-04-09 14:50:00,85.0,75.0,29.83,ESE,120,5.0,19.0,72,0.00,,,0.00,weatherlink.com 1.10,2013-04-09 18:50:00,
2013-04-09 15:05:00,85.1,74.0,29.83,ESE,109,13.0,23.0,70,0.00,,,0.00,weatherlink.com 1.10,2013-04-09 19:05:00,
2013-04-09 15:20:00,84.6,74.0,29.82,East,90,15.0,23.0,71,0.00,,,0.00,weatherlink.com 1.10,2013-04-09 19:20:00,
2013-04-09 15:35:00,84.7,74.0,29.82,ENE,67,5.0,17.0,71,0.00,,,0.00,weatherlink.com 1.10,2013-04-09 19:35:00,
2013-04-09 15:50:00,84.5,74.0,29.81,East,80,14.0,19.0,71,0.00,,,0.00,weatherlink.com 1.10,2013-04-09 19:50:00,
2013-04-09 16:05:00,84.3,74.0,29.81,SE,132,11.0,19.0,70,0.00,,,0.00,weatherlink.com 1.10,2013-04-09 20:05:00,
2013-04-09 16:20:00,84.3,74.0,29.80,ESE,118,11.0,22.0,70,0.00,,,0.00,weatherlink.com 1.10,2013-04-09 20:20:00,
2013-04-09 16:35:00,83.9,74.0,29.80,ESE,123,8.0,22.0,71,0.00,,,0.00,weatherlink.com 1.10,2013-04-09 20:35:00,
2013-04-09 16:50:00,83.9,73.0,29.80,NE,49,11.0,19.0,70,0.00,,,0.00,weatherlink.com 1.10,2013-04-09 20:50:00,
2013-04-09 17:05:00,83.3,73.0,29.80,East,85,17.0,19.0,71,0.00,,,0.00,weatherlink.com 1.10,2013-04-09 21:05:00,
2013-04-09 17:20:00,83.3,74.0,29.80,ENE,67,8.0,18.0,73,0.00,,,0.00,weatherlink.com 1.10,2013-04-09 21:20:00,
2013-04-09 17:35:00,83.2,73.0,29.80,NE,50,10.0,18.0,72,0.00,,,0.00,weatherlink.com 1.10,2013-04-09 21:35:00,
2013-04-09 17:50:00,82.7,73.0,29.80,ENE,72,4.0,18.0,73,0.00,,,0.00,weatherlink.com 1.10,2013-04-09 21:50:00,
2013-04-09 18:05:00,82.2,73.0,29.81,ENE,63,8.0,20.0,73,0.00,,,0.00,weatherlink.com 1.10,2013-04-09 22:05:00,
2013-04-09 18:20:00,81.8,73.0,29.81,ENE,77,9.0,23.0,74,0.00,,,0.00,weatherlink.com 1.10,2013-04-09 22:20:00,
2013-04-09 18:35:00,81.5,73.0,29.82,ENE,71,5.0,16.0,76,0.00,,,0.00,weatherlink.com 1.10,2013-04-09 22:35:00,
2013-04-09 18:50:00,81.2,73.0,29.82,East,96,8.0,17.0,77,0.00,,,0.00,weatherlink.com 1.10,2013-04-09 22:50:00,
2013-04-09 19:05:00,81.0,73.0,29.83,ENE,67,10.0,15.0,77,0.00,,,0.00,weatherlink.com 1.10,2013-04-09 23:05:00,
2013-04-09 19:20:00,81.0,74.0,29.84,NW,324,2.0,16.0,78,0.00,,,0.00,weatherlink.com 1.10,2013-04-09 23:20:00,
2013-04-09 19:35:00,80.7,74.0,29.85,ENE,74,2.0,15.0,79,0.00,,,0.00,weatherlink.com 1.10,2013-04-09 23:35:00,
2013-04-09 19:50:00,80.6,74.0,29.85,East,90,10.0,11.0,79,0.00,,,0.00,weatherlink.com 1.10,2013-04-09 23:50:00,
2013-04-09 20:05:00,80.6,74.0,29.85,North,9,7.0,16.0,79,0.00,,,0.00,weatherlink.com 1.10,2013-04-10 00:05:00,
2013-04-09 20:20:00,80.5,73.0,29.86,ESE,115,5.0,13.0,79,0.00,,,0.00,weatherlink.com 1.10,2013-04-10 00:20:00,
2013-04-09 20:35:00,80.5,73.0,29.85,ENE,74,7.0,17.0,78,0.00,,,0.00,weatherlink.com 1.10,2013-04-10 00:35:00,
2013-04-09 20:50:00,80.5,73.0,29.86,ENE,74,4.0,17.0,78,0.00,,,0.00,weatherlink.com 1.10,2013-04-10 00:50:00,
2013-04-09 21:05:00,80.4,73.0,29.86,NE,39,11.0,17.0,79,0.00,,,0.00,weatherlink.com 1.10,2013-04-10 01:05:00,
2013-04-09 21:20:00,80.4,74.0,29.87,NE,47,6.0,13.0,80,0.00,,,0.00,weatherlink.com 1.10,2013-04-10 01:20:00,
2013-04-09 21:35:00,80.3,74.0,29.87,ENE,65,11.0,16.0,80,0.00,,,0.00,weatherlink.com 1.10,2013-04-10 01:35:00,
2013-04-09 21:50:00,80.3,74.0,29.88,NNE,28,7.0,15.0,80,0.00,,,0.00,weatherlink.com 1.10,2013-04-10 01:50:00,
2013-04-09 22:05:00,80.2,74.0,29.88,ENE,73,9.0,17.0,81,0.00,,,0.00,weatherlink.com 1.10,2013-04-10 02:05:00,
2013-04-09 22:20:00,80.2,74.0,29.88,ENE,61,7.0,14.0,82,0.00,,,0.00,weatherlink.com 1.10,2013-04-10 02:20:00,
2013-04-09 22:35:00,80.1,74.0,29.88,NE,52,7.0,14.0,82,0.00,,,0.00,weatherlink.com 1.10,2013-04-10 02:35:00,
2013-04-09 22:50:00,80.1,74.0,29.88,East,81,6.0,15.0,82,0.00,,,0.00,weatherlink.com 1.10,2013-04-10 02:50:00,
2013-04-09 23:05:00,80.1,75.0,29.88,NE,44,5.0,14.0,83,0.00,,,0.00,weatherlink.com 1.10,2013-04-10 03:05:00,
2013-04-09 23:20:00,80.1,75.0,29.89,ENE,78,4.0,14.0,83,0.00,,,0.00,weatherlink.com 1.10,2013-04-10 03:20:00,
2013-04-09 23:35:00,80.0,74.0,29.89,East,83,6.0,18.0,83,0.00,,,0.00,weatherlink.com 1.10,2013-04-10 03:35:00,
2013-04-09 23:50:00,80.0,74.0,29.89,NE,38,7.0,16.0,81,0.00,,,0.00,weatherlink.com 1.10,2013-04-10 03:50:00,